�������l�o���
Date,Time,MP-1(��Sv/h),MP-2(��Sv/h),MP-3(��Sv/h),MP-4(��Sv/h),MP-5(��Sv/h),MP-6(��Sv/h),MP-7(��Sv/h),MP-8(��Sv/h),����,����(m/s),���J
2021/04/14,00:00,0.644,0.953,0.598,1.176,0.839,0.380,0.661,0.621,��,6.4,��
2021/04/14,00:10,0.644,0.952,0.600,1.176,0.838,0.380,0.661,0.619,��,7.1,��
2021/04/14,00:20,0.644,0.952,0.600,1.175,0.838,0.380,0.662,0.619,��,10.2,��
2021/04/14,00:30,0.646,0.954,0.599,1.175,0.839,0.379,0.663,0.620,��,10.6,��
2021/04/14,00:40,0.648,0.953,0.600,1.175,0.840,0.380,0.661,0.621,��쐼,9.1,��
2021/04/14,00:50,0.647,0.956,0.602,1.176,0.839,0.379,0.662,0.621,��쐼,10.5,��
2021/04/14,01:00,0.644,0.955,0.600,1.177,0.841,0.378,0.660,0.620,��,8.8,��
2021/04/14,01:10,0.645,0.954,0.600,1.177,0.838,0.379,0.661,0.621,��,7.5,��
2021/04/14,01:20,0.646,0.952,0.599,1.179,0.840,0.378,0.662,0.619,��쐼,5.9,��
2021/04/14,01:30,0.644,0.953,0.599,1.176,0.839,0.379,0.664,0.620,��,7.0,��
2021/04/14,01:40,0.644,0.952,0.599,1.177,0.840,0.378,0.662,0.621,��,6.0,��
2021/04/14,01:50,0.645,0.953,0.599,1.176,0.841,0.379,0.662,0.619,��쐼,5.3,��
2021/04/14,02:00,0.647,0.954,0.598,1.177,0.840,0.381,0.662,0.621,��,4.8,��
2021/04/14,02:10,0.645,0.954,0.600,1.177,0.840,0.380,0.663,0.621,��,4.2,��
2021/04/14,02:20,0.646,0.955,0.599,1.174,0.841,0.380,0.662,0.619,��,4.1,��
2021/04/14,02:30,0.644,0.956,0.600,1.176,0.842,0.380,0.664,0.621,��쓌,7.2,��
2021/04/14,02:40,0.646,0.955,0.600,1.176,0.843,0.380,0.663,0.620,��쓌,8.4,��
2021/04/14,02:50,0.646,0.954,0.598,1.177,0.842,0.379,0.663,0.621,��,7.1,��
2021/04/14,03:00,0.645,0.954,0.598,1.176,0.839,0.380,0.663,0.620,��쐼,7.0,��
2021/04/14,03:10,0.647,0.956,0.599,1.177,0.839,0.380,0.663,0.621,��,7.1,��
2021/04/14,03:20,0.646,0.954,0.600,1.176,0.841,0.380,0.664,0.621,��,6.0,��
2021/04/14,03:30,0.645,0.953,0.600,1.178,0.840,0.379,0.664,0.620,��,5.7,��
2021/04/14,03:40,0.646,0.953,0.599,1.177,0.839,0.379,0.662,0.620,��,6.0,��
2021/04/14,03:50,0.645,0.955,0.599,1.176,0.839,0.376,0.664,0.619,��,5.9,��
2021/04/14,04:00,0.646,0.954,0.601,1.177,0.838,0.379,0.663,0.620,��,5.2,��
2021/04/14,04:10,0.646,0.956,0.600,1.179,0.840,0.380,0.662,0.620,��,5.4,��
2021/04/14,04:20,0.646,0.954,0.600,1.176,0.839,0.379,0.663,0.619,��,4.7,��
2021/04/14,04:30,0.645,0.956,0.599,1.176,0.838,0.378,0.663,0.620,��쐼,4.9,��
2021/04/14,04:40,0.647,0.954,0.599,1.178,0.840,0.379,0.662,0.620,��쐼,5.0,��
2021/04/14,04:50,0.647,0.955,0.600,1.178,0.841,0.379,0.665,0.620,��쐼,4.9,��
2021/04/14,05:00,0.645,0.954,0.600,1.176,0.841,0.380,0.664,0.621,��쐼,4.9,��
2021/04/14,05:10,0.646,0.954,0.599,1.178,0.841,0.379,0.664,0.620,��쐼,4.4,��
2021/04/14,05:20,0.647,0.954,0.600,1.177,0.841,0.378,0.662,0.620,�쐼,4.2,��
2021/04/14,05:30,0.646,0.955,0.598,1.178,0.839,0.379,0.662,0.619,�쐼,4.0,��
2021/04/14,05:40,0.645,0.954,0.600,1.178,0.842,0.379,0.663,0.620,�쐼,4.3,��
2021/04/14,05:50,0.644,0.954,0.599,1.176,0.841,0.378,0.662,0.620,���쐼,3.7,��
2021/04/14,06:00,0.646,0.953,0.598,1.175,0.842,0.378,0.661,0.621,��,3.3,��
2021/04/14,06:10,0.647,0.953,0.600,1.178,0.841,0.380,0.662,0.620,��,2.9,�L
2021/04/14,06:20,0.646,0.954,0.600,1.177,0.842,0.380,0.662,0.619,���k��,3.1,��
2021/04/14,06:30,0.646,0.955,0.601,1.178,0.842,0.378,0.660,0.619,���쐼,1.9,��
2021/04/14,06:40,0.646,0.955,0.600,1.175,0.842,0.379,0.661,0.620,���k��,1.7,��
2021/04/14,06:50,0.646,0.955,0.601,1.176,0.842,0.380,0.662,0.619,�k��,3.3,��
2021/04/14,07:00,0.648,0.955,0.600,1.177,0.841,0.379,0.661,0.621,��,0.9,��
2021/04/14,07:10,0.648,0.954,0.601,1.177,0.842,0.379,0.661,0.619,�k��,1.2,��
2021/04/14,07:20,0.645,0.954,0.601,1.179,0.843,0.379,0.661,0.621,-,CALM,��
2021/04/14,07:30,0.646,0.953,0.601,1.176,0.842,0.377,0.662,0.618,���k��,2.0,��
2021/04/14,07:40,0.645,0.949,0.600,1.177,0.841,0.378,0.663,0.620,��,3.0,��
2021/04/14,07:50,0.645,0.950,0.599,1.178,0.840,0.376,0.663,0.620,���k��,3.4,��
2021/04/14,08:00,0.645,0.950,0.600,1.176,0.842,0.374,0.662,0.618,�k��,4.0,��
2021/04/14,08:10,0.644,0.950,0.600,1.176,0.841,0.377,0.663,0.618,�k��,4.6,��
2021/04/14,08:20,0.644,0.949,0.600,1.178,0.839,0.376,0.663,0.620,���k��,3.9,�L
2021/04/14,08:30,0.644,0.947,0.600,1.179,0.840,0.377,0.661,0.617,�k�k��,4.8,�L
2021/04/14,08:40,0.639,0.938,0.596,1.174,0.833,0.376,0.659,0.617,�k,7.2,�L
2021/04/14,08:50,0.635,0.930,0.591,1.170,0.826,0.375,0.658,0.615,�k,7.8,�L
2021/04/14,09:00,0.634,0.927,0.591,1.166,0.824,0.375,0.657,0.613,�k,9.2,�L
2021/04/14,09:10,0.633,0.923,0.588,1.163,0.820,0.374,0.656,0.613,�k,7.8,�L
2021/04/14,09:20,0.629,0.916,0.587,1.157,0.815,0.375,0.655,0.612,�k,7.3,�L
2021/04/14,09:30,0.631,0.913,0.589,1.154,0.812,0.374,0.653,0.611,�k,6.1,�L
2021/04/14,09:40,0.625,0.909,0.585,1.146,0.807,0.372,0.652,0.611,�k,5.7,�L
2021/04/14,09:50,0.626,0.908,0.587,1.144,0.809,0.372,0.652,0.610,�k�k��,5.3,�L
2021/04/14,10:00,0.628,0.910,0.587,1.143,0.810,0.373,0.652,0.611,�k,5.4,�L
2021/04/14,10:10,0.629,0.911,0.586,1.142,0.808,0.374,0.649,0.608,�k�k��,3.8,�L
2021/04/14,10:20,0.627,0.905,0.587,1.135,0.806,0.375,0.648,0.606,�k�k��,6.3,�L
2021/04/14,10:30,0.625,0.905,0.586,1.133,0.801,0.376,0.650,0.607,�k�k��,7.6,�L
2021/04/14,10:40,0.623,0.900,0.585,1.128,0.797,0.374,0.646,0.608,�k,6.6,�L
2021/04/14,10:50,0.620,0.897,0.582,1.120,0.796,0.373,0.646,0.607,�k,7.2,�L
2021/04/14,11:00,0.620,0.897,0.583,1.115,0.797,0.371,0.646,0.607,�k,7.2,�L
2021/04/14,11:10,0.621,0.900,0.582,1.116,0.797,0.373,0.644,0.606,�k,7.4,�L
2021/04/14,11:20,0.616,0.893,0.581,1.112,0.793,0.373,0.644,0.603,�k�k��,6.8,�L
2021/04/14,11:30,0.617,0.895,0.582,1.111,0.791,0.372,0.642,0.605,�k�k��,6.5,�L
2021/04/14,11:40,0.615,0.891,0.580,1.107,0.789,0.373,0.640,0.604,�k,6.4,�L
2021/04/14,11:50,0.616,0.893,0.582,1.105,0.790,0.371,0.641,0.602,�k�k��,6.3,�L
2021/04/14,12:00,0.617,0.895,0.581,1.105,0.789,0.372,0.641,0.603,�k�k��,7.3,�L
2021/04/14,12:10,0.618,0.895,0.581,1.105,0.790,0.373,0.641,0.603,�k,8.2,�L
2021/04/14,12:20,0.617,0.895,0.581,1.101,0.788,0.372,0.639,0.602,�k,7.5,�L
2021/04/14,12:30,0.616,0.890,0.581,1.102,0.786,0.372,0.639,0.602,�k�k��,7.4,�L
2021/04/14,12:40,0.615,0.893,0.579,1.102,0.786,0.372,0.639,0.603,�k�k��,8.6,�L
2021/04/14,12:50,0.616,0.890,0.581,1.103,0.786,0.372,0.640,0.603,�k�k��,8.7,�L
2021/04/14,13:00,0.615,0.892,0.579,1.104,0.786,0.372,0.641,0.604,�k�k��,8.5,�L
2021/04/14,13:10,0.617,0.893,0.581,1.103,0.787,0.371,0.641,0.602,�k�k��,9.0,�L
2021/04/14,13:20,0.617,0.890,0.580,1.104,0.788,0.372,0.640,0.602,�k�k��,9.2,�L
2021/04/14,13:30,0.617,0.891,0.580,1.099,0.787,0.372,0.639,0.605,�k��,8.0,�L
2021/04/14,13:40,0.615,0.887,0.578,1.096,0.781,0.374,0.637,0.602,-,CALM,�L
2021/04/14,13:50,0.613,0.887,0.577,1.093,0.780,0.373,0.635,0.599,�k,9.2,�L
2021/04/14,14:00,0.615,0.888,0.579,1.095,0.779,0.372,0.636,0.600,�k,9.8,�L
2021/04/14,14:10,0.617,0.890,0.580,1.097,0.780,0.372,0.637,0.603,�k,10.2,�L
2021/04/14,14:20,0.616,0.890,0.578,1.099,0.781,0.372,0.639,0.601,�k,7.3,�L
2021/04/14,14:30,0.616,0.892,0.579,1.098,0.783,0.371,0.638,0.602,�k,8.0,�L
2021/04/14,14:40,0.616,0.892,0.578,1.101,0.784,0.371,0.640,0.604,�k,9.8,�L
2021/04/14,14:50,0.615,0.891,0.575,1.100,0.782,0.370,0.638,0.604,�k,10.7,�L
2021/04/14,15:00,0.615,0.892,0.575,1.099,0.783,0.370,0.638,0.603,�k�k��,8.9,�L
2021/04/14,15:10,0.614,0.892,0.574,1.100,0.784,0.370,0.638,0.605,�k�k��,9.3,�L
2021/04/14,15:20,0.615,0.892,0.576,1.101,0.783,0.367,0.639,0.604,�k�k��,9.5,�L
2021/04/14,15:30,0.615,0.895,0.575,1.103,0.783,0.368,0.639,0.605,�k,7.6,�L
2021/04/14,15:40,0.614,0.894,0.574,1.103,0.784,0.368,0.640,0.606,�k,7.2,�L
2021/04/14,15:50,0.616,0.893,0.574,1.103,0.784,0.367,0.639,0.605,�k,7.1,�L
2021/04/14,16:00,0.615,0.895,0.574,1.102,0.783,0.368,0.638,0.605,�k,6.8,�L
2021/04/14,16:10,0.612,0.895,0.575,1.099,0.784,0.366,0.639,0.605,�k,8.2,�L
2021/04/14,16:20,0.613,0.894,0.573,1.105,0.785,0.366,0.640,0.606,�k,11.6,�L
2021/04/14,16:30,0.612,0.894,0.573,1.103,0.784,0.368,0.640,0.604,�k,10.5,�L
2021/04/14,16:40,0.613,0.895,0.574,1.103,0.784,0.366,0.640,0.606,�k,11.6,�L
2021/04/14,16:50,0.613,0.895,0.573,1.103,0.783,0.366,0.639,0.605,�k,9.5,��
2021/04/14,17:00,0.613,0.897,0.572,1.105,0.785,0.367,0.641,0.604,�k,9.3,��
2021/04/14,17:10,0.612,0.895,0.571,1.105,0.785,0.366,0.640,0.606,�k,7.3,�L
2021/04/14,17:20,0.614,0.896,0.574,1.104,0.785,0.366,0.640,0.604,�k,7.9,�L
2021/04/14,17:30,0.614,0.898,0.572,1.105,0.784,0.367,0.641,0.605,�k,8.1,��
2021/04/14,17:40,0.615,0.898,0.573,1.105,0.786,0.365,0.640,0.605,�k,9.2,��
2021/04/14,17:50,0.615,0.895,0.573,1.107,0.787,0.367,0.641,0.605,�k,8.2,��
2021/04/14,18:00,0.613,0.897,0.572,1.106,0.787,0.367,0.642,0.605,�k,9.6,��
2021/04/14,18:10,0.613,0.896,0.574,1.107,0.786,0.365,0.643,0.604,�k,8.5,��
2021/04/14,18:20,0.613,0.897,0.574,1.107,0.789,0.367,0.642,0.605,�k�k��,7.9,��
2021/04/14,18:30,0.614,0.901,0.574,1.110,0.789,0.366,0.640,0.605,�k�k��,9.6,��
2021/04/14,18:40,0.614,0.902,0.574,1.107,0.787,0.367,0.641,0.605,�k�k��,7.9,�L
2021/04/14,18:50,0.614,0.900,0.573,1.106,0.787,0.367,0.641,0.606,�k,5.9,�L
2021/04/14,19:00,0.615,0.898,0.573,1.109,0.788,0.366,0.643,0.606,�k�k��,8.0,��
2021/04/14,19:10,0.615,0.900,0.574,1.109,0.788,0.366,0.643,0.606,�k�k��,8.3,��
2021/04/14,19:20,0.614,0.900,0.574,1.108,0.788,0.366,0.641,0.606,�k�k��,7.8,��
2021/04/14,19:30,0.616,0.901,0.575,1.110,0.789,0.366,0.642,0.605,�k�k��,9.1,��
2021/04/14,19:40,0.614,0.901,0.574,1.110,0.787,0.366,0.643,0.605,�k�k��,9.8,��
2021/04/14,19:50,0.615,0.902,0.575,1.111,0.789,0.365,0.642,0.605,�k�k��,11.0,��
2021/04/14,20:00,0.614,0.901,0.574,1.111,0.788,0.366,0.643,0.606,�k,8.9,��
2021/04/14,20:10,0.616,0.902,0.575,1.112,0.789,0.366,0.641,0.606,�k�k��,8.4,��
2021/04/14,20:20,0.615,0.899,0.574,1.113,0.789,0.366,0.644,0.606,�k�k��,9.6,��
2021/04/14,20:30,0.615,0.901,0.575,1.113,0.788,0.366,0.641,0.607,�k�k��,7.8,��
2021/04/14,20:40,0.616,0.902,0.576,1.113,0.789,0.367,0.641,0.606,�k�k��,8.3,��
2021/04/14,20:50,0.615,0.902,0.576,1.113,0.789,0.364,0.642,0.607,�k�k��,8.2,��
2021/04/14,21:00,0.615,0.902,0.573,1.112,0.789,0.367,0.640,0.606,�k�k��,8.0,��
2021/04/14,21:10,0.615,0.901,0.575,1.111,0.790,0.367,0.642,0.605,�k�k��,6.9,��
2021/04/14,21:20,0.615,0.904,0.574,1.112,0.790,0.367,0.643,0.606,�k�k��,7.0,��
2021/04/14,21:30,0.616,0.901,0.573,1.112,0.793,0.366,0.642,0.607,�k�k��,6.3,��
2021/04/14,21:40,0.615,0.900,0.573,1.114,0.791,0.366,0.642,0.606,�k�k��,6.7,��
2021/04/14,21:50,0.616,0.901,0.573,1.113,0.791,0.366,0.642,0.605,�k�k��,8.1,��
2021/04/14,22:00,0.615,0.902,0.575,1.115,0.790,0.367,0.643,0.607,�k�k��,8.5,��
2021/04/14,22:10,0.616,0.905,0.574,1.113,0.790,0.366,0.643,0.608,�k�k��,6.3,��
2021/04/14,22:20,0.616,0.903,0.572,1.115,0.790,0.367,0.642,0.607,�k�k��,7.9,��
2021/04/14,22:30,0.616,0.903,0.576,1.114,0.790,0.366,0.642,0.605,�k�k��,7.2,��
2021/04/14,22:40,0.617,0.903,0.575,1.113,0.791,0.367,0.644,0.605,�k�k��,7.7,��
2021/04/14,22:50,0.616,0.903,0.574,1.112,0.793,0.367,0.642,0.606,�k�k��,7.8,��
2021/04/14,23:00,0.616,0.903,0.577,1.115,0.789,0.366,0.643,0.608,�k�k��,6.7,��
2021/04/14,23:10,0.616,0.903,0.575,1.114,0.790,0.365,0.643,0.605,�k�k��,6.8,��
2021/04/14,23:20,0.614,0.905,0.576,1.115,0.791,0.366,0.643,0.607,�k�k��,6.9,��
2021/04/14,23:30,0.615,0.905,0.575,1.115,0.790,0.366,0.643,0.606,�k�k��,8.9,��
2021/04/14,23:40,0.615,0.903,0.574,1.116,0.790,0.366,0.643,0.608,�k�k��,7.0,��
2021/04/14,23:50,0.615,0.904,0.574,1.114,0.792,0.367,0.644,0.606,�k�k��,6.6,��
